Date String (YYYY-MM-DD hh:mm:ss) UTC,Instrument flags,Ambient pressure (hPa),Sample flow (lpm),Bypass flow (lpm),Sample temperature (°C),Ambient temperature (°C),ASC tube jacket temperature (°C),LED temperature (°C),Box temperature (°C),Sample RH (%),Span deviation,Mass concentration (μg/m³),Mass concentration (μg/m³),Mass concentration (μg/m³)
DateTimeUTC,F1_M11,P_M11,Q1_M11,Q2_M11,T1_M11,T2_M11,T3_M11,T4_M11,T5_M11,U1_M11,ZSPAN_M11,X0_M11,X2_M11,X1_M11
2022-02-27 02:00:00,,0832.5,5.01,0.00,22.7,21.9,00.0,32.0,24.3,08.5,0000.2,0020.90,0015.09,0014.18
2022-02-27 02:01:00,,0832.6,5.00,0.00,22.7,21.8,00.0,31.9,24.3,08.4,0000.3,0020.60,0015.03,0014.16
2022-02-27 02:02:00,,0832.6,5.00,0.00,22.6,21.8,00.0,31.9,24.3,08.4,0000.1,0020.14,0014.99,0014.15
2022-02-27 02:03:00,,0832.6,5.00,0.00,22.6,21.8,00.0,31.9,24.2,08.4,0000.6,0020.13,0014.98,0014.14
2022-02-27 02:04:00,,0832.5,4.99,0.00,22.6,21.7,00.0,31.9,24.2,08.4,0000.6,0020.26,0014.98,0014.15
2022-02-27 02:05:00,,0832.5,5.00,0.00,22.6,21.7,00.0,31.8,24.2,08.4,0000.6,0020.01,0014.99,0014.14
2022-02-27 02:06:00,,0832.6,5.00,0.00,22.5,21.7,00.0,31.8,24.1,08.4,0000.8,0019.89,0014.97,0014.12
2022-02-27 02:07:00,,0832.6,5.00,0.00,22.5,21.6,00.0,31.8,24.1,08.4,0001.2,0019.58,0014.96,0014.11
2022-02-27 02:08:00,,0832.6,5.00,0.00,22.5,21.7,00.0,31.8,24.1,08.4,0001.3,0019.36,0014.97,0014.08
2022-02-27 02:09:00,,0832.7,5.00,0.00,22.5,21.7,00.0,31.7,24.1,08.4,0001.5,0019.40,0014.97,0014.06
2022-02-27 02:10:00,,0832.7,4.99,0.00,22.5,21.6,00.0,31.7,24.1,08.4,0002.2,0019.22,0014.89,0013.99
2022-02-27 02:11:00,,0832.7,5.01,0.00,22.4,21.6,00.0,31.7,24.1,08.4,0002.0,0019.16,0014.86,0013.95
2022-02-27 02:12:00,,0832.7,4.99,0.00,22.4,21.6,00.0,31.7,24.1,08.5,0001.8,0019.67,0014.95,0013.97
2022-02-27 02:13:00,,0832.7,5.00,0.00,22.4,21.6,00.0,31.7,24.0,08.5,0001.9,0020.03,0015.04,0014.04
2022-02-27 02:14:00,,0832.7,5.00,0.00,22.4,21.5,00.0,31.6,24.0,08.5,0001.8,0020.67,0015.17,0014.12
2022-02-27 02:15:00,,0832.7,5.01,0.00,22.4,21.5,00.0,31.6,24.0,08.5,0002.0,0020.91,0015.25,0014.19
2022-02-27 02:16:00,,0832.6,5.00,0.00,22.3,21.5,00.0,31.6,24.0,08.4,0002.1,0021.11,0015.30,0014.24
2022-02-27 02:17:00,,0832.7,5.00,0.00,22.3,21.5,00.0,31.6,24.0,08.5,0002.0,0021.28,0015.40,0014.33
2022-02-27 02:18:00,,0832.7,4.99,0.00,22.3,21.5,00.0,31.5,23.9,08.6,0001.8,0021.47,0015.50,0014.41
2022-02-27 02:19:00,,0832.6,5.00,0.00,22.3,21.5,00.0,31.5,23.9,08.6,0002.1,0021.28,0015.49,0014.45
2022-02-27 02:20:00,,0832.7,4.99,0.00,22.3,21.4,00.0,31.5,23.9,08.6,0002.1,0021.35,0015.52,0014.50
2022-02-27 02:21:00,,0832.7,5.01,0.00,22.2,21.4,00.0,31.5,23.9,08.7,0001.9,0021.55,0015.65,0014.60
2022-02-27 02:22:00,,0832.7,5.01,0.00,22.2,21.4,00.0,31.5,23.8,08.7,0002.1,0021.79,0015.80,0014.72
2022-02-27 02:23:00,,0832.7,4.99,0.00,22.2,21.3,00.0,31.4,23.8,08.8,0002.5,0021.49,0015.85,0014.78
2022-02-27 02:24:00,,0832.7,4.99,0.00,22.2,21.3,00.0,31.4,23.8,08.8,0002.7,0021.70,0015.89,0014.81
2022-02-27 02:25:00,,0832.7,5.01,0.00,22.1,21.3,00.0,31.4,23.7,08.7,0003.0,0021.40,0015.90,0014.81
2022-02-27 02:26:00,,0832.7,5.00,0.00,22.1,21.2,00.0,31.4,23.7,08.7,0003.1,0021.10,0015.88,0014.80
2022-02-27 02:27:00,,0832.7,4.99,0.00,22.1,21.2,00.0,31.3,23.7,08.7,0003.0,0021.06,0015.87,0014.81
2022-02-27 02:28:00,,0832.7,5.02,0.00,22.0,21.2,00.0,31.3,23.6,08.8,0003.0,0021.61,0015.89,0014.81
2022-02-27 02:29:00,,0832.7,5.00,0.00,22.0,21.1,00.0,31.3,23.6,08.8,0003.0,0021.64,0015.94,0014.82
2022-02-27 02:30:00,,0832.7,5.00,0.00,22.0,21.1,00.0,31.3,23.6,08.8,0002.8,0022.00,0016.03,0014.86
2022-02-27 02:31:00,,0832.7,4.99,0.00,22.0,21.1,00.0,31.2,23.6,08.8,0002.5,0022.51,0016.10,0014.87
2022-02-27 02:32:00,,0832.7,5.00,0.00,21.9,21.1,00.0,31.2,23.5,08.9,0002.2,0022.74,0016.12,0014.89
2022-02-27 02:33:00,,0832.7,5.00,0.00,21.9,21.1,00.0,31.2,23.5,09.0,0002.1,0022.79,0016.09,0014.88
2022-02-27 02:34:00,,0832.7,5.00,0.00,21.9,21.0,00.0,31.2,23.5,09.0,0001.6,0022.80,0016.07,0014.89
2022-02-27 02:35:00,,0832.7,5.00,0.00,21.9,21.0,00.0,31.1,23.5,09.0,0001.2,0022.95,0016.06,0014.88
2022-02-27 02:36:00,,0832.7,5.00,0.00,21.8,21.0,00.0,31.1,23.4,09.0,0001.0,0022.85,0015.98,0014.85
2022-02-27 02:37:00,,0832.7,5.00,0.00,21.8,21.0,00.0,31.1,23.4,09.0,0000.9,0023.06,0015.98,0014.87
2022-02-27 02:38:00,,0832.7,5.01,0.00,21.8,20.9,00.0,31.1,23.4,09.0,0001.2,0023.25,0016.04,0014.86
2022-02-27 02:39:00,,0832.7,4.99,0.00,21.7,20.8,00.0,31.0,23.3,09.0,0001.4,0022.88,0016.08,0014.88
2022-02-27 02:40:00,,0832.8,5.00,0.00,21.7,20.8,00.0,31.0,23.3,09.0,0001.2,0022.66,0016.05,0014.89
2022-02-27 02:41:00,,0832.7,5.00,0.00,21.7,20.8,00.0,31.0,23.3,09.0,0001.2,0022.63,0016.02,0014.89
2022-02-27 02:42:00,,0832.7,5.00,0.00,21.7,20.8,00.0,31.0,23.3,09.0,0001.3,0022.74,0015.98,0014.92
2022-02-27 02:43:00,,0832.7,5.00,0.00,21.7,20.8,00.0,30.9,23.3,09.0,0001.3,0023.64,0016.01,0014.94
2022-02-27 02:44:00,,0832.7,5.00,0.00,21.6,20.8,00.0,30.9,23.3,09.0,0001.1,0024.15,0016.07,0014.97
2022-02-27 02:45:00,,0832.7,4.98,0.00,21.6,20.8,00.0,30.9,23.2,09.0,0001.4,0024.67,0016.09,0015.00
2022-02-27 02:46:00,,0832.7,5.01,0.00,21.6,20.8,00.0,30.9,23.2,09.0,0001.6,0024.35,0016.08,0015.03
2022-02-27 02:47:00,,0832.8,5.00,0.00,21.6,20.8,00.0,30.9,23.2,09.0,0001.7,0024.26,0016.12,0015.07
2022-02-27 02:48:00,,0832.8,4.99,0.00,21.6,20.8,00.0,30.8,23.2,09.0,0001.4,0024.45,0016.14,0015.08
2022-02-27 02:49:00,,0832.7,5.00,0.00,21.6,20.8,00.0,30.8,23.2,09.0,0001.1,0025.41,0016.15,0015.11
2022-02-27 02:50:00,,0832.7,5.00,0.00,21.6,20.8,00.0,30.8,23.2,09.0,0001.5,0025.87,0016.15,0015.14
2022-02-27 02:51:00,,0832.7,5.00,0.00,21.5,20.7,00.0,30.8,23.2,09.0,0001.9,0025.90,0016.12,0015.14
2022-02-27 02:52:00,,0832.7,5.00,0.00,21.5,20.7,00.0,30.8,23.1,09.0,0002.2,0025.93,0016.15,0015.17
2022-02-27 02:53:00,,0832.7,5.00,0.00,21.6,21.0,00.0,30.8,23.3,09.0,0002.2,0025.07,0016.16,0015.17
2022-02-27 02:54:00,,0832.7,5.00,0.00,21.7,21.7,00.0,30.8,23.5,08.9,0002.5,0024.01,0016.13,0015.17
2022-02-27 02:55:00,,0832.8,5.00,0.00,21.9,22.4,00.0,30.8,23.8,08.9,0002.8,0023.41,0016.12,0015.17
2022-02-27 02:56:00,,0832.8,4.99,0.00,22.0,22.6,00.0,30.9,23.9,08.8,0002.6,0023.58,0016.13,0015.18
2022-02-27 02:57:00,,0832.8,5.00,0.00,22.0,22.3,00.0,30.9,23.9,08.7,0003.0,0023.59,0016.16,0015.18
2022-02-27 02:58:00,,0832.9,5.00,0.00,22.0,22.1,00.0,30.9,23.8,08.8,0002.7,0023.70,0016.21,0015.20
2022-02-27 02:59:00,,0832.8,5.02,0.00,22.0,21.9,00.0,30.9,23.7,08.8,0002.9,0023.47,0016.21,0015.22
